DW1996 Weather Reports


Display with metric or nautical units.
time (UTC)temp
F
wind
direction
speed
MPH
gust
MPH
rain 1hr
in
rain 24hr
in
rain mn
in
humidity
%
barometer
mb
20260508073039 79 185 0.0 0.0 0.00 0.00 0.00 90 1010.7
20260508071538 79 199 0.0 0.0 0.00 0.00 0.00 90 1010.9
20260508070037 79 199 0.0 4.0 0.00 0.00 0.00 90 1011.3
20260508064546 79 87 0.0 4.0 0.00 0.00 0.00 90 1010.9
20260508063035 79 114 0.0 8.0 0.00 0.00 0.00 90 1010.8
20260508061535 79 92 1.0 7.0 0.00 0.00 0.00 90 1010.7
20260508060032 79 94 6.0 13.0 0.00 0.00 0.00 90 1010.6
20260508054534 79 74 2.0 14.0 0.00 0.00 0.00 90 1011.1
20260508053033 79 88 11.0 17.0 0.00 0.00 0.00 90 1010.6
20260508051526 79 64 15.0 19.0 0.00 0.00 0.00 90 1010.6
20260508050025 79 71 16.0 19.0 0.00 0.00 0.00 90 1011.0
20260508044521 79 54 16.0 20.0 0.00 0.00 0.00 90 1011.1
20260508043020 79 55 15.0 19.0 0.00 0.00 0.00 89 1011.1
20260508041519 79 62 14.0 19.0 0.00 0.00 0.00 89 1011.2
20260508040023 79 57 18.0 23.0 0.00 0.00 0.00 89 1010.5
20260508034516 79 63 16.0 21.0 0.00 0.00 0.00 90 1010.9
20260508033016 79 32 14.0 19.0 0.00 0.00 0.00 90 1011.0
20260508031516 79 38 15.0 22.0 0.00 0.00 0.00 90 1010.5
20260508030015 79 37 15.0 20.0 0.00 0.00 0.00 89 1010.8
20260508024510 80 39 15.0 20.0 0.00 0.00 0.00 89 1010.4
20260508023022 80 56 15.0 19.0 0.00 0.00 0.00 89 1010.4
20260508021511 80 53 16.0 20.0 0.00 0.00 0.00 89 1010.1
20260508020007 80 51 17.0 20.0 0.00 0.00 0.00 89 1010.0
20260508014517 80 46 16.0 20.0 0.00 0.00 0.00 89 1010.0
20260508013004 80 52 16.0 21.0 0.00 0.00 0.00 89 1009.8
20260508011501 80 49 16.0 19.0 0.00 0.00 0.00 89 1009.6
20260508004601 80 30 11.0 15.0 0.00 0.00 0.00 89 1009.6
20260508003108 80 37 13.0 16.0 0.00 0.00 0.00 89 1009.2
20260508001600 80 49 13.0 18.0 0.00 0.00 0.00 89 1009.0
20260508000101 80 38 13.0 18.0 0.00 0.00 0.00 89 1008.9
20260507234557 80 25 14.0 17.0 0.00 0.00 0.00 88 1008.8
20260507233057 81 32 14.0 18.0 0.00 0.00 0.00 88 1008.7
20260507231556 81 49 13.0 16.0 0.00 0.00 0.00 88 1008.8
20260507230058 81 36 12.0 16.0 0.00 0.00 0.00 88 1008.8
20260507224614 81 40 12.0 17.0 0.00 0.00 0.00 88 1008.8
20260507223058 81 44 12.0 17.0 0.00 0.00 0.00 87 1008.9
20260507221553 81 49 14.0 18.0 0.00 0.00 0.00 87 1008.9
20260507220053 82 51 11.0 15.0 0.00 0.00 0.00 87 1009.0
20260507214554 81 40 13.0 17.0 0.00 0.00 0.00 87 1008.9
20260507213053 81 43 13.0 19.0 0.00 0.00 0.00 87 1009.0
20260507211611 81 52 17.0 20.0 0.00 0.00 0.00 87 1008.9
20260507210053 81 49 15.0 20.0 0.00 0.00 0.00 87 1009.2
20260507204559 81 45 17.0 21.0 0.00 0.00 0.00 87 1009.4
20260507203050 81 36 15.0 20.0 0.00 0.00 0.00 87 1009.8
20260507201604 81 31 17.0 21.0 0.00 0.00 0.00 86 1009.9
20260507200059 81 30 14.0 18.0 0.00 0.00 0.00 86 1009.9
20260507194548 82 45 13.0 17.0 0.00 0.00 0.00 85 1010.0
20260507193045 83 49 13.0 17.0 0.00 0.00 0.00 84 1010.1
20260507191549 83 44 13.0 18.0 0.00 0.00 0.00 84 1010.4
20260507190043 83 45 12.0 16.0 0.00 0.00 0.00 85 1010.5
20260507184542 83 40 11.0 13.0 0.00 0.00 0.00 84 1010.9
20260507183042 82 51 9.0 12.0 0.00 0.00 0.00 84 1010.9
20260507181540 82 52 9.0 11.0 0.00 0.00 0.00 84 1011.0
20260507180045 83 53 9.0 11.0 0.00 0.00 0.00 83 1011.1
20260507174539 83 51 7.0 10.0 0.00 0.00 0.00 84 1011.1
20260507173036 82 66 6.0 9.0 0.00 0.00 0.00 84 1011.2
20260507171532 82 61 0.0 0.0 0.00 0.00 0.00 85 1011.3
20260507170031 82 117 0.0 0.0 0.00 0.00 0.00 85 1011.4
20260507164529 81 116 0.0 0.0 0.00 0.00 0.00 86 1011.3
20260507163028 81 148 0.0 6.0 0.00 0.00 0.00 86 1011.5
20260507161527 81 98 0.0 0.0 0.00 0.00 0.00 87 1011.5
20260507160025 81 90 0.0 7.0 0.00 0.00 0.00 88 1011.3
20260507154524 81 152 0.0 7.0 0.00 0.00 0.00 88 1011.3
20260507153030 81 81 4.0 8.0 0.00 0.00 0.00 88 1011.3
20260507151521 81 80 3.0 9.0 0.00 0.00 0.00 88 1011.2
20260507150020 81 103 0.0 8.0 0.00 0.00 0.00 89 1011.2
20260507144520 81 90 4.0 8.0 0.00 0.00 0.00 89 1011.0
20260507143017 81 94 2.0 8.0 0.00 0.00 0.00 89 1010.9
20260507141515 81 74 5.0 10.0 0.00 0.00 0.00 89 1010.7
20260507140023 81 107 4.0 9.0 0.00 0.00 0.00 90 1010.6
20260507134512 80 84 4.0 8.0 0.00 0.00 0.00 90 1010.4
20260507133010 80 61 2.0 7.0 0.00 0.00 0.00 90 1010.2
20260507131508 80 83 0.0 7.0 0.00 0.00 0.00 90 1010.0
20260507130007 80 107 0.0 0.0 0.00 0.00 0.00 90 1010.1
20260507124512 80 103 0.0 0.0 0.00 0.00 0.00 90 1009.9
20260507123004 80 111 0.0 0.0 0.00 0.00 0.00 90 1009.6
20260507121501 80 69 0.0 0.0 0.00 0.00 0.00 90 1009.3
20260507120059 80 116 0.0 4.0 0.00 0.00 0.00 90 1009.1
20260507120001 80 94 0.0 5.0 0.00 0.00 0.00 90 1009.1
20260507114559 80 143 1.0 8.0 0.00 0.00 0.00 90 1008.8
20260507113058 80 176 2.0 10.0 0.00 0.00 0.00 90 1008.6
20260507111556 80 102 1.0 11.0 0.00 0.00 0.00 90 1008.1
20260507110058 80 101 4.0 10.0 0.00 0.00 0.00 90 1008.2
20260507104554 80 98 2.0 9.0 0.00 0.00 0.00 89 1008.5
20260507103051 80 101 5.0 10.0 0.00 0.00 0.00 89 1008.9
20260507101602 81 60 0.0 0.0 0.00 0.00 0.00 89 1009.1
20260507100049 81 63 0.0 0.0 0.00 0.00 0.00 89 1009.1
20260507094556 81 59 0.0 0.0 0.00 0.00 0.00 89 1009.2
20260507093047 81 63 0.0 0.0 0.00 0.00 0.00 89 1009.0
20260507091558 81 96 0.0 0.0 0.00 0.00 0.00 88 1008.9
20260507090106 81 115 0.0 0.0 0.00 0.00 0.00 88 1008.6
20260507084543 81 72 0.0 0.0 0.00 0.00 0.00 88 1008.7
20260507083043 81 133 0.0 0.0 0.00 0.00 0.00 88 1008.7
20260507081551 81 144 0.0 0.0 0.00 0.00 0.00 88 1009.0
20260507080040 81 127 0.0 0.0 0.00 0.00 0.00 87 1009.1
20260507074541 81 103 0.0 0.0 0.00 0.00 0.00 88 1009.0